The Dalles, WA

11:49 PM PST on December 05, 2019 (GMT -0800)
Columbia Gorge Regional-The Dalles

Weather History for KDLS - June, 2019

Change the Weather History Date:

Monday, June 10, 2019

  Actual Average Record
Temperature  
Mean Temperature 71 °F -  
Max Temperature 91 °F 78 °F 99 °F (1955)
Min Temperature 52 °F 53 °F 43 °F (1959)
Cooling Degree Days 6    
Growing Degree Days 21 (Base 50)    
Moisture  
Dew Point 47 °F    
Average Humidity 44    
Maximum Humidity 71    
Minimum Humidity 18    
Precipitation  
Precipitation 0.00 in - - ()
Sea Level Pressure  
Sea Level Pressure 30.16 in    
Wind  
Wind Speed 4 mph (NW)    
Max Wind Speed 13 mph    
Max Gust Speed 18 mph    
Visibility 10 miles    
Events      
Averages and records for this station are not official NWS values.
T = Trace of Precipitation, MM = Missing Value Source: NWS Daily Summary

Daily Weather History Graph

Daily Weather History Graph

Search for Another Location

Airport or City:

Astronomy

Jun. 10, 2019 Rise Set
Actual Time 5:15 AM PDT 8:53 PM PDT
Civil Twilight 4:37 AM PDT 9:30 PM PDT
Nautical Twilight 3:47 AM PDT 10:21 PM PDT
Astronomical Twilight 2:39 AM PDT 11:29 PM PDT
Moon 1:26 PM PDT (6/10) 1:55 AM PDT (6/10)
Length of Visible Light 16h 53m
Length of Day
15h 37m
First Quarter, 56% of the Moon is Illuminated
Jun 10
First Quarter
Jun 17
Full
Jun 25
Last Quarter
Jul 2
New
Jul 9
First Quarter

Hourly Weather History & Observations

Time (PDT) Temp. Heat Index Dew Point Humidity Pressure Visibility Wind Dir Wind Speed Gust Speed Precip Events Conditions
12:53 AM 59.0 °F - 43.0 °F 55% 30.20 in 10.0 mi Calm Calm - N/A   Clear
1:53 AM 57.9 °F - 43.0 °F 58% 30.21 in 10.0 mi ESE 4.6 mph - N/A   Clear
2:53 AM 55.0 °F - 43.0 °F 64% 30.21 in 10.0 mi ESE 5.8 mph - N/A   Clear
3:53 AM 53.1 °F - 44.1 °F 71% 30.22 in 10.0 mi Calm Calm - N/A   Clear
4:53 AM 55.0 °F - 45.0 °F 69% 30.22 in 10.0 mi Calm Calm - N/A   Clear
5:53 AM 52.0 °F - 42.1 °F 69% 30.22 in 10.0 mi SE 5.8 mph - N/A   Clear
6:53 AM 55.9 °F - 45.0 °F 67% 30.23 in 10.0 mi ESE 3.5 mph - N/A   Clear
7:53 AM 60.1 °F - 45.0 °F 57% 30.23 in 10.0 mi Calm Calm - N/A   Clear
8:53 AM 64.9 °F - 46.9 °F 52% 30.23 in 10.0 mi North 4.6 mph - N/A   Clear
9:53 AM 70.0 °F - 48.0 °F 46% 30.22 in 10.0 mi Calm Calm - N/A   Clear
10:53 AM 75.0 °F - 46.9 °F 37% 30.20 in 10.0 mi Calm Calm - N/A   Clear
11:53 AM 79.0 °F - 48.0 °F 34% 30.18 in 10.0 mi SSW 4.6 mph - N/A   Clear
12:53 PM 84.0 °F - 45.0 °F 25% 30.16 in 10.0 mi SSW 5.8 mph - N/A   Clear
1:53 PM 86.0 °F - 37.9 °F 18% 30.13 in 10.0 mi Variable 3.5 mph - N/A   Clear
2:53 PM 90.0 °F - 43.0 °F 19% 30.11 in 10.0 mi Variable 5.8 mph - N/A   Clear
3:53 PM 90.0 °F - 50.0 °F 25% 30.09 in 10.0 mi NNW 10.4 mph - N/A   Clear
4:53 PM 88.0 °F 85.7 °F 53.1 °F 30% 30.07 in 10.0 mi NW 12.7 mph - N/A   Clear
5:53 PM 87.1 °F 85.1 °F 54.0 °F 32% 30.07 in 10.0 mi NNW 12.7 mph 18.4 mph N/A   Clear
6:53 PM 84.0 °F 82.5 °F 53.1 °F 34% 30.07 in 10.0 mi NNW 10.4 mph - N/A   Clear
7:53 PM 82.0 °F 81.2 °F 53.1 °F 37% 30.08 in 10.0 mi NNW 9.2 mph - N/A   Clear
8:53 PM 78.1 °F - 52.0 °F 40% 30.09 in 10.0 mi NW 9.2 mph - N/A   Clear
9:53 PM 77.0 °F - 52.0 °F 42% 30.10 in 10.0 mi WNW 9.2 mph - N/A   Clear
10:53 PM 75.0 °F - 50.0 °F 41% 30.11 in 10.0 mi Calm Calm - N/A   Clear
11:53 PM 73.0 °F - 50.0 °F 44% 30.13 in 10.0 mi WNW 5.8 mph - N/A   Clear